Regional Weather Roundup
Issued by NWS

Home | Current Version | Previous Version | Text Only | Print | Product List | Glossary On
Versions: 1 2 3 4 5 6 7 8 9 10 11 12 13 14 15 16 17 18 19 20 21 22 23 24 25 26 27 28 29 30 31 32 33 34 35 36 37 38 39 40 41 42 43 44 45 46 47 48 49 50
000
ASUS42 KFFC 260803
RWRGA
WEATHER ROUNDUP FOR GEORGIA
NATIONAL WEATHER SERVICE PEACHTREE CITY GA
400 AM EDT TUE MAY 26 2015

NOTE: "FAIR" INDICATES FEW OR NO CLOUDS BELOW 12,000 FEET WITH NO
SIGNIFICANT WEATHER AND/OR OBSTRUCTIONS TO VISIBILITY.

* = USE WITH CAUTION. THE STATIONS MARKED WITH AN ASTERISK MAY NOT
REPORT WEATHER SUCH AS PRECIPITATION, FOG, OR THUNDER AND ARE NOT
QUALITY CONTROLLED BY NWS.

THE REMARK "TC" DENOTES TEMPERATURE READING IN DEGREES CELSIUS.

GAZ001>058-260900-
NORTH GEORGIA

CITY           SKY/WX    TMP DP  RH WIND       PRES   REMARKS
ATLANTA        CLOUDY    71  68  90 SE8       30.20F
ATHENS         MOCLDY    70  66  87 VRB3      30.23F
CHAMBLEE       CLOUDY    69  68  96 SE7       30.21S
PEACHTREE CITY CLOUDY    72  69  90 SE6       30.20S
ROME           CLOUDY    69  68  96 SE3       30.15F
WEST ATLANTA   CLOUDY    71  68  90 SE8       30.19S
GAINESVILLE    CLOUDY    66  65  96 SE7       30.24F
CARTERSVILLE   CLOUDY    70  67  90 SE6       30.18S


CITY           SKY/WX    TMP DP  RH WIND       PRES   REMARKS
DALTON*        CLOUDY    66  66 100 CALM      30.17S
MARIETTA       CLOUDY    70  70 100 SE9       30.19F
BLAIRSVILLE*     N/A     66  58  75 E5        30.24F
$$

GAZ059>098-102>109-260900-
CENTRAL GEORGIA

CITY           SKY/WX    TMP DP  RH WIND       PRES   REMARKS
AUGUSTA-BUSH   CLOUDY    70  68  93 SE3       30.22S
AUGUSTA-DANIEL CLOUDY    72  68  87 SE5       30.24S
COLUMBUS       MOCLDY    71  69  93 E6        30.15S
MACON          CLOUDY    70  69  97 SE5       30.19F
ROBINS AFB     CLOUDY    71  69  95 SE7       30.18F


CITY           SKY/WX    TMP DP  RH WIND       PRES   REMARKS
LAGRANGE*      CLOUDY    73  73 100 CALM      30.16F
SYLVANIA*      FOG       70  70 100 CALM      30.23R VSB 1/2
MILLEDGEVILLE* MOCLDY    72  70  94 CALM      30.21F
$$

GAZ099>101-110>166-260900-
SOUTH GEORGIA

CITY           SKY/WX    TMP DP  RH WIND       PRES   REMARKS
SAVANNAH       CLEAR     72  70  93 SE6       30.21S
VALDOSTA       MOCLDY    74  71  91 SE5       30.17F
ALMA           CLOUDY    72  71  97 E5        30.20S
ALBANY         PTCLDY    75  70  84 SE6       30.17F
HUNTER AFB     CLEAR     73  73 100 E1        30.18F
MOODY AFB      MOCLDY    73  70  91 E7        30.16F
BRUNSWICK      PTCLDY    72  68  88 CALM      30.20S


CITY           SKY/WX    TMP DP  RH WIND       PRES   REMARKS
BAINBRIDGE*    MOCLDY    73  72  94 SE5       30.15S
MOULTRIE*      MOCLDY    75  70  83 SE3       30.17S
VIDALIA*       MOCLDY    72  70  94 CALM      30.22R
WAYCROSS*      PTCLDY    72  72 100 CALM      30.19S
DOUGLAS*       MOCLDY    73  72  94 SE3       30.20F
$$



USA.gov is the U.S. government's official web portal to all federal, state and local government web resources and services.